| time (UTC) | temp F | wind direction | speed knots | gust knots | rain 1hr in | rain 24hr in | rain mn in | humidity % | barometer mb |
| 20260505091308 | 77 | 344 | 14.8 | 21.7 | 0.00 | 0.00 | 0.00 | 30 | 1013.0 |
| 20260505090805 | 77 | 354 | 13.9 | 23.5 | 0.00 | 0.00 | 0.00 | 32 | 1013.4 |
| 20260505090303 | 77 | 353 | 15.6 | 22.6 | 0.00 | 0.00 | 0.00 | 31 | 1013.3 |
| 20260505085800 | 77 | 334 | 14.8 | 20.0 | 0.00 | 0.00 | 0.00 | 31 | 1013.2 |
| 20260505085258 | 77 | 323 | 13.9 | 20.9 | 0.00 | 0.00 | 0.00 | 30 | 1013.3 |
| 20260505084755 | 77 | 349 | 17.4 | 22.6 | 0.00 | 0.00 | 0.00 | 32 | 1013.1 |
| 20260505084255 | 77 | 352 | 18.2 | 21.7 | 0.00 | 0.00 | 0.00 | 31 | 1013.2 |
| 20260505083751 | 76 | 353 | 21.7 | 25.2 | 0.00 | 0.00 | 0.00 | 32 | 1013.4 |
| 20260505083248 | 77 | 345 | 19.1 | 21.7 | 0.00 | 0.00 | 0.00 | 34 | 1013.5 |
| 20260505082744 | 76 | 347 | 14.8 | 22.6 | 0.00 | 0.00 | 0.00 | 35 | 1013.4 |
| 20260505082241 | 76 | 15 | 17.4 | 23.5 | 0.00 | 0.00 | 0.00 | 36 | 1013.4 |
| 20260505081737 | 76 | 349 | 21.7 | 25.2 | 0.00 | 0.00 | 0.00 | 36 | 1013.6 |
| 20260505081235 | 76 | 357 | 19.1 | 21.7 | 0.00 | 0.00 | 0.00 | 36 | 1013.6 |
| 20260505080731 | 75 | 348 | 14.8 | 20.9 | 0.00 | 0.00 | 0.00 | 37 | 1013.6 |
| 20260505080227 | 75 | 345 | 20.0 | 22.6 | 0.00 | 0.00 | 0.00 | 38 | 1013.7 |
| 20260505075723 | 75 | 342 | 20.0 | 25.2 | 0.00 | 0.00 | 0.00 | 37 | 1013.5 |
| 20260505075220 | 75 | 340 | 23.5 | 25.2 | 0.00 | 0.00 | 0.00 | 37 | 1013.7 |
| 20260505074717 | 74 | 328 | 20.0 | 22.6 | 0.00 | 0.00 | 0.00 | 37 | 1013.5 |
| 20260505074214 | 74 | 322 | 22.6 | 26.1 | 0.00 | 0.00 | 0.00 | 36 | 1013.8 |
| 20260505073712 | 75 | 356 | 20.9 | 26.1 | 0.00 | 0.00 | 0.00 | 35 | 1013.7 |
| 20260505073210 | 74 | 343 | 19.1 | 26.9 | 0.00 | 0.00 | 0.00 | 38 | 1013.7 |
| 20260505072705 | 74 | 347 | 20.0 | 28.7 | 0.00 | 0.00 | 0.00 | 38 | 1013.5 |
| 20260505072202 | 73 | 334 | 17.4 | 26.1 | 0.00 | 0.00 | 0.00 | 38 | 1013.6 |
| 20260505071657 | 73 | 336 | 22.6 | 25.2 | 0.00 | 0.00 | 0.00 | 38 | 1013.7 |
| 20260505071155 | 73 | 355 | 25.2 | 26.9 | 0.00 | 0.00 | 0.00 | 38 | 1013.6 |
| 20260505070653 | 73 | 350 | 20.9 | 27.8 | 0.00 | 0.00 | 0.00 | 38 | 1013.5 |
| 20260505070148 | 73 | 340 | 21.7 | 29.5 | 0.00 | 0.00 | 0.00 | 42 | 1013.6 |
| 20260505065645 | 73 | 339 | 23.5 | 26.9 | 0.00 | 0.00 | 0.00 | 43 | 1013.5 |
| 20260505065142 | 73 | 317 | 20.9 | 25.2 | 0.00 | 0.00 | 0.00 | 42 | 1013.7 |
| 20260505064638 | 73 | 3 | 26.1 | 31.3 | 0.00 | 0.00 | 0.00 | 45 | 1013.7 |
| 20260505064136 | 72 | 351 | 25.2 | 28.7 | 0.00 | 0.00 | 0.00 | 43 | 1013.6 |
| 20260505063634 | 71 | 1 | 19.1 | 27.8 | 0.00 | 0.00 | 0.00 | 46 | 1013.5 |
| 20260505063130 | 72 | 341 | 25.2 | 28.7 | 0.00 | 0.00 | 0.00 | 44 | 1013.5 |
| 20260505062626 | 72 | 345 | 23.5 | 26.9 | 0.00 | 0.00 | 0.00 | 45 | 1013.5 |
| 20260505062124 | 71 | 351 | 20.9 | 25.2 | 0.00 | 0.00 | 0.00 | 48 | 1013.4 |
| 20260505061621 | 72 | 344 | 25.2 | 28.7 | 0.00 | 0.00 | 0.00 | 45 | 1013.6 |
| 20260505061119 | 71 | 344 | 21.7 | 28.7 | 0.00 | 0.00 | 0.00 | 48 | 1013.4 |
| 20260505060616 | 71 | 343 | 27.8 | 29.5 | 0.00 | 0.00 | 0.00 | 47 | 1013.6 |
| 20260505060113 | 70 | 332 | 20.0 | 29.5 | 0.00 | 0.00 | 0.00 | 49 | 1013.5 |
| 20260505055608 | 70 | 350 | 23.5 | 31.3 | 0.00 | 0.00 | 0.00 | 50 | 1013.3 |
| 20260505055105 | 70 | 343 | 26.1 | 29.5 | 0.00 | 0.00 | 0.00 | 50 | 1013.4 |
| 20260505054602 | 70 | 321 | 25.2 | 26.9 | 0.00 | 0.00 | 0.00 | 50 | 1013.5 |
| 20260505054100 | 70 | 340 | 25.2 | 31.3 | 0.00 | 0.00 | 0.00 | 52 | 1013.5 |
| 20260505053557 | 70 | 3 | 25.2 | 33.0 | 0.00 | 0.00 | 0.00 | 51 | 1013.4 |
| 20260505053053 | 70 | 342 | 28.7 | 31.3 | 0.00 | 0.00 | 0.00 | 52 | 1013.4 |
| 20260505052550 | 69 | 344 | 23.5 | 28.7 | 0.00 | 0.00 | 0.00 | 52 | 1013.5 |
| 20260505052048 | 69 | 333 | 27.8 | 31.3 | 0.00 | 0.00 | 0.00 | 52 | 1013.4 |
| 20260505051545 | 69 | 351 | 26.9 | 31.3 | 0.00 | 0.00 | 0.00 | 54 | 1013.1 |
| 20260505051043 | 69 | 348 | 25.2 | 27.8 | 0.00 | 0.00 | 0.00 | 53 | 1013.2 |
| 20260505050541 | 69 | 348 | 25.2 | 27.8 | 0.00 | 0.00 | 0.00 | 53 | 1013.0 |
| 20260505041508 | 68 | 327 | 22.6 | 27.8 | 0.00 | 0.00 | 0.00 | 57 | 1012.7 |
| 20260505041006 | 68 | 339 | 25.2 | 31.3 | 0.00 | 0.00 | 0.00 | 54 | 1012.6 |
| 20260505040503 | 68 | 351 | 20.9 | 23.5 | 0.00 | 0.00 | 0.00 | 56 | 1012.6 |
| 20260505040000 | 68 | 347 | 24.3 | 28.7 | 0.00 | 0.00 | 0.00 | 57 | 1012.7 |
| 20260505035455 | 68 | 0 | 27.8 | 29.5 | 0.00 | 0.00 | 0.00 | 58 | 1012.7 |
| 20260505034953 | 67 | 349 | 23.5 | 26.9 | 0.00 | 0.00 | 0.00 | 58 | 1012.6 |
| 20260505034449 | 67 | 351 | 20.0 | 27.8 | 0.00 | 0.00 | 0.00 | 59 | 1012.5 |
| 20260505033947 | 67 | 340 | 21.7 | 27.8 | 0.00 | 0.00 | 0.00 | 59 | 1012.3 |
| 20260505033443 | 67 | 333 | 26.9 | 33.0 | 0.00 | 0.00 | 0.00 | 59 | 1012.4 |
| 20260505032941 | 67 | 356 | 24.3 | 28.7 | 0.00 | 0.00 | 0.00 | 59 | 1012.4 |
| 20260505032439 | 67 | 353 | 24.3 | 28.7 | 0.00 | 0.00 | 0.00 | 60 | 1012.4 |
| 20260505031935 | 67 | 340 | 23.5 | 28.7 | 0.00 | 0.00 | 0.00 | 58 | 1012.2 |
| 20260505031432 | 67 | 351 | 21.7 | 33.0 | 0.00 | 0.00 | 0.00 | 59 | 1012.2 |
| 20260505030929 | 67 | 339 | 23.5 | 30.4 | 0.00 | 0.00 | 0.00 | 60 | 1012.4 |
| 20260505030424 | 67 | 346 | 26.1 | 27.8 | 0.00 | 0.00 | 0.00 | 60 | 1012.2 |
| 20260505025920 | 67 | 329 | 26.9 | 28.7 | 0.00 | 0.00 | 0.00 | 60 | 1012.2 |
| 20260505025418 | 67 | 345 | 24.3 | 27.8 | 0.00 | 0.00 | 0.00 | 60 | 1012.0 |
| 20260505024917 | 67 | 336 | 17.4 | 28.7 | 0.00 | 0.00 | 0.00 | 59 | 1012.2 |
| 20260505024414 | 67 | 341 | 21.7 | 26.9 | 0.00 | 0.00 | 0.00 | 58 | 1012.1 |
| 20260505023910 | 68 | 351 | 21.7 | 25.2 | 0.00 | 0.00 | 0.00 | 57 | 1012.0 |
| 20260505023408 | 67 | 351 | 15.6 | 26.1 | 0.00 | 0.00 | 0.00 | 56 | 1012.3 |
| 20260505022905 | 67 | 347 | 23.5 | 29.5 | 0.00 | 0.00 | 0.00 | 59 | 1012.3 |
| 20260505022402 | 68 | 353 | 26.9 | 31.3 | 0.00 | 0.00 | 0.00 | 58 | 1011.9 |
| 20260505021859 | 68 | 12 | 23.5 | 28.7 | 0.00 | 0.00 | 0.00 | 58 | 1011.8 |
| 20260505021355 | 68 | 350 | 27.8 | 29.5 | 0.00 | 0.00 | 0.00 | 58 | 1012.0 |
| 20260505020851 | 68 | 352 | 21.7 | 26.9 | 0.00 | 0.00 | 0.00 | 57 | 1012.0 |
| 20260505020347 | 68 | 350 | 17.4 | 26.1 | 0.00 | 0.00 | 0.00 | 59 | 1012.1 |
| 20260505015844 | 68 | 342 | 22.6 | 26.1 | 0.00 | 0.00 | 0.00 | 58 | 1011.9 |
| 20260505015341 | 68 | 345 | 21.7 | 28.7 | 0.00 | 0.00 | 0.00 | 57 | 1011.8 |
| 20260505014838 | 68 | 351 | 21.7 | 26.1 | 0.00 | 0.00 | 0.00 | 57 | 1011.9 |
| 20260505014335 | 68 | 339 | 20.9 | 27.8 | 0.00 | 0.00 | 0.00 | 57 | 1011.9 |
| 20260505013832 | 68 | 328 | 18.2 | 25.2 | 0.00 | 0.00 | 0.00 | 56 | 1011.8 |
| 20260505013329 | 68 | 341 | 23.5 | 31.3 | 0.00 | 0.00 | 0.00 | 55 | 1011.7 |
| 20260505012828 | 68 | 323 | 22.6 | 27.8 | 0.00 | 0.00 | 0.00 | 55 | 1011.7 |
| 20260505012325 | 68 | 341 | 25.2 | 28.7 | 0.00 | 0.00 | 0.00 | 54 | 1011.7 |
| 20260505011820 | 69 | 343 | 24.3 | 29.5 | 0.00 | 0.00 | 0.00 | 54 | 1011.8 |
| 20260505011318 | 68 | 348 | 26.1 | 27.8 | 0.00 | 0.00 | 0.00 | 54 | 1011.8 |
| 20260505010814 | 69 | 344 | 26.1 | 28.7 | 0.00 | 0.00 | 0.00 | 53 | 1011.8 |
| 20260505010310 | 69 | 325 | 22.6 | 27.8 | 0.00 | 0.00 | 0.00 | 56 | 1011.6 |
| 20260505005806 | 69 | 337 | 21.7 | 26.9 | 0.00 | 0.00 | 0.00 | 56 | 1011.9 |
| 20260505005304 | 69 | 339 | 20.0 | 26.9 | 0.00 | 0.00 | 0.00 | 56 | 1011.7 |
| 20260505004801 | 69 | 342 | 26.1 | 27.8 | 0.00 | 0.00 | 0.00 | 54 | 1011.6 |
| 20260505004256 | 69 | 341 | 26.1 | 28.7 | 0.00 | 0.00 | 0.00 | 53 | 1011.7 |
| 20260505003754 | 69 | 346 | 22.6 | 26.1 | 0.00 | 0.00 | 0.00 | 55 | 1011.7 |
| 20260505003252 | 69 | 355 | 21.7 | 27.8 | 0.00 | 0.00 | 0.00 | 54 | 1011.7 |
| 20260505002748 | 69 | 348 | 20.0 | 30.4 | 0.00 | 0.00 | 0.00 | 53 | 1011.9 |
| 20260505002245 | 69 | 322 | 26.1 | 30.4 | 0.00 | 0.00 | 0.00 | 53 | 1011.9 |
| 20260505001743 | 70 | 359 | 19.1 | 25.2 | 0.00 | 0.00 | 0.00 | 52 | 1012.1 |
| 20260505001240 | 70 | 344 | 20.9 | 27.8 | 0.00 | 0.00 | 0.00 | 49 | 1012.1 |
| 20260505000737 | 70 | 339 | 20.9 | 22.6 | 0.00 | 0.00 | 0.00 | 51 | 1012.0 |
| 20260505000235 | 70 | 335 | 16.5 | 25.2 | 0.00 | 0.00 | 0.00 | 50 | 1012.1 |
| 20260504235731 | 70 | 356 | 20.0 | 21.7 | 0.00 | 0.00 | 0.00 | 51 | 1012.1 |
| 20260504235227 | 70 | 355 | 24.3 | 27.8 | 0.00 | 0.00 | 0.00 | 50 | 1012.0 |
| 20260504234725 | 70 | 347 | 20.9 | 25.2 | 0.00 | 0.00 | 0.00 | 51 | 1012.2 |
| 20260504234222 | 70 | 348 | 24.3 | 29.5 | 0.00 | 0.00 | 0.00 | 50 | 1011.9 |
| 20260504233718 | 71 | 339 | 26.9 | 30.4 | 0.00 | 0.00 | 0.00 | 49 | 1012.1 |
| 20260504233214 | 71 | 346 | 23.5 | 27.8 | 0.00 | 0.00 | 0.00 | 51 | 1011.7 |
| 20260504232711 | 71 | 356 | 23.5 | 26.9 | 0.00 | 0.00 | 0.00 | 52 | 1012.0 |
| 20260504232208 | 71 | 336 | 19.1 | 28.7 | 0.00 | 0.00 | 0.00 | 50 | 1012.1 |
| 20260504231704 | 71 | 1 | 21.7 | 26.9 | 0.00 | 0.00 | 0.00 | 48 | 1011.9 |
| 20260504231201 | 71 | 351 | 24.3 | 26.9 | 0.00 | 0.00 | 0.00 | 51 | 1011.9 |
| 20260504230657 | 71 | 354 | 20.0 | 28.7 | 0.00 | 0.00 | 0.00 | 49 | 1011.9 |
| 20260504230156 | 71 | 336 | 20.9 | 26.1 | 0.00 | 0.00 | 0.00 | 46 | 1012.2 |
| 20260504225654 | 71 | 329 | 21.7 | 27.8 | 0.00 | 0.00 | 0.00 | 48 | 1012.0 |
| 20260504225149 | 71 | 344 | 20.9 | 26.9 | 0.00 | 0.00 | 0.00 | 51 | 1011.9 |
| 20260504224647 | 71 | 352 | 22.6 | 28.7 | 0.00 | 0.00 | 0.00 | 48 | 1012.1 |
| 20260504224143 | 71 | 353 | 19.1 | 26.1 | 0.00 | 0.00 | 0.00 | 47 | 1011.9 |
| 20260504223641 | 71 | 346 | 22.6 | 26.9 | 0.00 | 0.00 | 0.00 | 45 | 1012.1 |
| 20260504223136 | 71 | 344 | 18.2 | 28.7 | 0.00 | 0.00 | 0.00 | 49 | 1012.0 |
| 20260504222634 | 71 | 351 | 17.4 | 23.5 | 0.00 | 0.00 | 0.00 | 49 | 1012.2 |
| 20260504222131 | 72 | 358 | 20.0 | 22.6 | 0.00 | 0.00 | 0.00 | 49 | 1012.2 |
| 20260504221628 | 72 | 353 | 21.7 | 26.9 | 0.00 | 0.00 | 0.00 | 48 | 1012.1 |
| 20260504221125 | 72 | 350 | 24.3 | 33.0 | 0.00 | 0.00 | 0.00 | 48 | 1012.1 |
| 20260504220621 | 72 | 358 | 24.3 | 29.5 | 0.00 | 0.00 | 0.00 | 48 | 1012.2 |
| 20260504220119 | 72 | 348 | 22.6 | 26.9 | 0.00 | 0.00 | 0.00 | 48 | 1012.2 |
| 20260504215615 | 73 | 349 | 27.8 | 31.3 | 0.00 | 0.00 | 0.00 | 51 | 1012.2 |
| 20260504215113 | 73 | 328 | 19.1 | 23.5 | 0.00 | 0.00 | 0.00 | 46 | 1012.2 |
| 20260504214608 | 73 | 348 | 20.0 | 23.5 | 0.00 | 0.00 | 0.00 | 40 | 1011.9 |
| 20260504214105 | 73 | 351 | 19.1 | 26.1 | 0.00 | 0.00 | 0.00 | 40 | 1012.2 |
| 20260504213601 | 73 | 352 | 19.1 | 22.6 | 0.00 | 0.00 | 0.00 | 39 | 1012.2 |
| 20260504213058 | 73 | 348 | 26.1 | 31.3 | 0.00 | 0.00 | 0.00 | 39 | 1012.0 |
| 20260504212554 | 73 | 351 | 19.1 | 25.2 | 0.00 | 0.00 | 0.00 | 39 | 1012.0 |
| 20260504212052 | 73 | 353 | 21.7 | 28.7 | 0.00 | 0.00 | 0.00 | 39 | 1012.4 |
| 20260504211548 | 73 | 347 | 27.8 | 31.3 | 0.00 | 0.00 | 0.00 | 41 | 1012.0 |
| 20260504211045 | 74 | 356 | 20.0 | 27.8 | 0.00 | 0.00 | 0.00 | 41 | 1012.2 |
| 20260504210542 | 74 | 345 | 23.5 | 26.1 | 0.00 | 0.00 | 0.00 | 39 | 1012.4 |
| 20260504210039 | 74 | 347 | 23.5 | 25.2 | 0.00 | 0.00 | 0.00 | 40 | 1012.3 |
| 20260504205537 | 74 | 347 | 20.9 | 23.5 | 0.00 | 0.00 | 0.00 | 42 | 1012.3 |
| 20260504205035 | 74 | 29 | 19.1 | 22.6 | 0.00 | 0.00 | 0.00 | 40 | 1012.3 |
| 20260504204532 | 74 | 355 | 24.3 | 28.7 | 0.00 | 0.00 | 0.00 | 41 | 1012.3 |
| 20260504204031 | 74 | 344 | 21.7 | 25.2 | 0.00 | 0.00 | 0.00 | 40 | 1012.6 |
| 20260504203529 | 74 | 341 | 24.3 | 28.7 | 0.00 | 0.00 | 0.00 | 39 | 1012.2 |
| 20260504203026 | 74 | 345 | 19.1 | 21.7 | 0.00 | 0.00 | 0.00 | 40 | 1012.3 |
| 20260504202521 | 74 | 349 | 23.5 | 28.7 | 0.00 | 0.00 | 0.00 | 39 | 1012.5 |
| 20260504202019 | 74 | 353 | 26.9 | 30.4 | 0.00 | 0.00 | 0.00 | 39 | 1012.4 |
| 20260504201515 | 75 | 355 | 24.3 | 27.8 | 0.00 | 0.00 | 0.00 | 39 | 1012.5 |
| 20260504201013 | 75 | 356 | 26.9 | 31.3 | 0.00 | 0.00 | 0.00 | 39 | 1012.3 |
| 20260504200510 | 75 | 353 | 18.2 | 20.0 | 0.00 | 0.00 | 0.00 | 40 | 1012.6 |
| 20260504200006 | 75 | 343 | 27.8 | 30.4 | 0.00 | 0.00 | 0.00 | 39 | 1012.4 |
| 20260504195503 | 75 | 351 | 25.2 | 29.5 | 0.00 | 0.00 | 0.00 | 39 | 1012.3 |
| 20260504194959 | 75 | 331 | 23.5 | 26.1 | 0.00 | 0.00 | 0.00 | 38 | 1012.4 |
| 20260504194455 | 75 | 355 | 23.5 | 26.9 | 0.00 | 0.00 | 0.00 | 38 | 1012.3 |
| 20260504193951 | 75 | 337 | 26.1 | 29.5 | 0.00 | 0.00 | 0.00 | 38 | 1012.5 |
| 20260504193449 | 75 | 3 | 25.2 | 27.8 | 0.00 | 0.00 | 0.00 | 37 | 1012.4 |
| 20260504192947 | 75 | 338 | 20.9 | 25.2 | 0.00 | 0.00 | 0.00 | 38 | 1012.1 |
| 20260504192444 | 75 | 354 | 26.9 | 28.7 | 0.00 | 0.00 | 0.00 | 38 | 1011.9 |
| 20260504191943 | 75 | 345 | 24.3 | 28.7 | 0.00 | 0.00 | 0.00 | 39 | 1011.9 |
| 20260504191441 | 76 | 355 | 24.3 | 26.9 | 0.00 | 0.00 | 0.00 | 38 | 1012.1 |
| 20260504190935 | 76 | 355 | 24.3 | 26.9 | 0.00 | 0.00 | 0.00 | 38 | 1011.7 |
| 20260504190431 | 76 | 334 | 19.1 | 20.9 | 0.00 | 0.00 | 0.00 | 37 | 1011.7 |
| 20260504185928 | 76 | 341 | 22.6 | 25.2 | 0.00 | 0.00 | 0.00 | 36 | 1012.0 |
| 20260504185426 | 77 | 331 | 28.7 | 30.4 | 0.00 | 0.00 | 0.00 | 34 | 1011.7 |
| 20260504184921 | 77 | 331 | 28.7 | 30.4 | 0.00 | 0.00 | 0.00 | 34 | 1011.5 |
| 20260504184417 | 77 | 333 | 26.9 | 29.5 | 0.00 | 0.00 | 0.00 | 32 | 1011.6 |
| 20260504183913 | 77 | 335 | 25.2 | 26.9 | 0.00 | 0.00 | 0.00 | 32 | 1011.5 |
| 20260504183411 | 77 | 357 | 26.1 | 29.5 | 0.00 | 0.00 | 0.00 | 32 | 1011.6 |
| 20260504182909 | 77 | 345 | 26.1 | 28.7 | 0.00 | 0.00 | 0.00 | 30 | 1011.4 |
| 20260504182405 | 77 | 345 | 26.1 | 28.7 | 0.00 | 0.00 | 0.00 | 30 | 1011.3 |
| 20260504181902 | 77 | 345 | 26.1 | 28.7 | 0.00 | 0.00 | 0.00 | 30 | 1011.3 |
| 20260504181359 | 77 | 341 | 26.1 | 29.5 | 0.00 | 0.00 | 0.00 | 28 | 1011.4 |
| 20260504180858 | 77 | 341 | 26.1 | 29.5 | 0.00 | 0.00 | 0.00 | 28 | 1011.3 |
| 20260504180356 | 78 | 337 | 26.1 | 27.8 | 0.00 | 0.00 | 0.00 | 29 | 1011.4 |
| 20260504175854 | 78 | 337 | 26.1 | 27.8 | 0.00 | 0.00 | 0.00 | 29 | 1011.3 |
| 20260504175350 | 78 | 340 | 25.2 | 26.9 | 0.00 | 0.00 | 0.00 | 28 | 1011.2 |
| 20260504174849 | 78 | 353 | 26.1 | 27.8 | 0.00 | 0.00 | 0.00 | 28 | 1011.1 |
| 20260504174346 | 78 | 343 | 25.2 | 30.4 | 0.00 | 0.00 | 0.00 | 28 | 1011.1 |
| 20260504173843 | 78 | 350 | 23.5 | 27.8 | 0.00 | 0.00 | 0.00 | 27 | 1011.0 |
| 20260504173340 | 78 | 358 | 18.2 | 28.7 | 0.00 | 0.00 | 0.00 | 29 | 1011.0 |
| 20260504172837 | 78 | 0 | 22.6 | 28.7 | 0.00 | 0.00 | 0.00 | 29 | 1010.7 |
| 20260504172333 | 78 | 348 | 22.6 | 27.8 | 0.00 | 0.00 | 0.00 | 28 | 1010.8 |
| 20260504171829 | 78 | 347 | 24.3 | 28.7 | 0.00 | 0.00 | 0.00 | 29 | 1010.6 |
| 20260504171326 | 78 | 342 | 18.2 | 25.2 | 0.00 | 0.00 | 0.00 | 29 | 1010.6 |
| 20260504170824 | 78 | 341 | 25.2 | 27.8 | 0.00 | 0.00 | 0.00 | 29 | 1010.5 |
| 20260504170320 | 78 | 340 | 21.7 | 27.8 | 0.00 | 0.00 | 0.00 | 29 | 1010.5 |
| 20260504160238 | 80 | 339 | 18.2 | 21.7 | 0.00 | 0.00 | 0.00 | 27 | 1010.3 |
| 20260504150704 | 82 | 336 | 13.9 | 20.0 | 0.00 | 0.00 | 0.00 | 29 | 1010.3 |
| 20260504150201 | 83 | 10 | 15.6 | 20.0 | 0.00 | 0.00 | 0.00 | 28 | 1010.2 |
| 20260504141130 | 83 | 320 | 13.0 | 15.6 | 0.00 | 0.00 | 0.00 | 31 | 1010.5 |
| 20260504140627 | 83 | 328 | 13.0 | 15.6 | 0.00 | 0.00 | 0.00 | 31 | 1010.6 |
| 20260504140122 | 83 | 314 | 9.6 | 11.3 | 0.00 | 0.00 | 0.00 | 32 | 1010.6 |
| 20260504130550 | 84 | 319 | 8.7 | 13.0 | 0.00 | 0.00 | 0.00 | 35 | 1010.9 |
| 20260504110438 | 83 | 305 | 7.8 | 9.6 | 0.00 | 0.00 | 0.00 | 31 | 1011.9 |
| 20260504100401 | 82 | 334 | 11.3 | 15.6 | 0.00 | 0.00 | 0.00 | 35 | 1012.7 |